Tracking 34305 objects as of 6-Jun-2026
HD Live streaming from Space Station
objects crossing your sky now

NOAA 16 DEB

Track NOAA 16 DEB now!
10-day predictions


NORAD ID: 41258
Int'l Code: 2000-055FJ
Perigee: 664.5 km
Apogee: 720.0 km
Inclination: 99.0 °
Period: 98.5 minutes
Semi major axis: 7063 km
RCS: Unknown
Launch date: September 21, 2000
Source: United States (US)
Launch site: AIR FORCE WESTERN TEST RANGE (AFWTR)

Note: This is SATELLITE DEBRIS
Your satellite tracking list
Your tracking list is empty




NASA's NSSDC Master Catalog

Two Line Element Set (TLE):
1 41258U 00055FJ  26154.97552300  .00011363  00000-0  22247-2 0  9992
2 41258  98.9809  59.1101 0039290  89.3094 271.2607 14.62499363544632
Source of the keplerian elements: AFSPC